Theta_e
292 292 294 295 295 294 292 293 289 292 292 296 298 296 295 296 296 296 297 299 299 298 297 296 296 296 295 295 294 294 292 291 291 291 292 292 292 292 292 293 293 293 293 294
284 290 290 288 293 294 295 295 294 295 294 298 300 298 297 295 297 297 298 299 300 300 298 296 296 295 295 294 294 293 291 291 292 292 292 291 291 292 292 292 291 292 292 293
280 288 286 282 290 295 297 297 296 291 297 299 300 301 302 300 296 297 298 299 300 300 299 298 297 295 294 294 293 291 291 291 291 291 291 291 292 291 291 290 290 291 291 292
281 284 277 288 300 300 298 300 300 299 300 299 301 303 302 301 299 298 300 299 300 300 299 298 295 295 294 293 292 291 290 290 290 290 290 291 290 290 290 290 290 290 291 291
282 282 286 290 296 294 293 292 299 299 301 299 301 301 301 303 300 299 298 298 300 300 298 296 295 294 293 291 291 290 289 289 290 290 290 290 290 289 290 290 290 290 291 291
284 280 277 288 295 300 297 289 297 296 295 295 299 294 300 301 300 298 298 297 297 297 297 295 293 293 292 290 290 289 290 291 291 290 290 290 290 289 289 290 290 291 291 291
282 281 284 292 295 298 286 287 295 296 296 295 293 299 304 304 298 297 297 297 297 297 295 293 292 292 291 289 289 291 292 292 291 291 290 290 290 289 289 289 289 289 290 291
280 279 277 297 297 291 294 295 296 295 295 295 297 297 298 299 297 297 296 297 296 294 293 292 292 292 290 289 291 292 292 291 290 290 292 293 289 288 288 288 287 288 289 289
283 283 291 292 293 300 300 297 296 296 297 299 298 297 295 294 295 296 295 294 294 293 291 291 291 292 289 290 291 291 290 290 290 291 290 290 288 288 287 287 288 288 289 289
284 288 290 292 295 296 298 298 298 301 301 303 298 298 295 294 295 294 293 292 292 292 291 289 290 291 290 291 292 290 289 288 289 288 289 289 289 289 287 287 287 289 289 289
283 287 289 291 295 297 297 298 300 302 303 303 301 300 297 295 294 293 293 293 293 292 291 291 291 291 291 291 292 290 289 288 288 289 288 288 288 288 288 288 290 288 289 290
281 288 288 290 294 295 295 296 298 299 300 304 305 303 301 295 295 294 293 293 293 293 293 292 291 291 291 293 292 291 289 288 288 288 288 288 288 288 295 298 299 300 300 297
288 292 292 293 294 295 295 296 298 298 300 300 305 304 302 297 294 296 294 293 293 293 293 293 292 291 292 293 292 291 289 289 288 291 288 288 288 287 287 290 297 298 298 299
292 291 289 291 291 295 295 296 298 300 300 301 305 304 305 301 296 294 293 294 294 294 293 292 291 291 292 293 293 292 290 296 290 289 288 288 288 288 288 287 287 289 295 297
291 292 292 293 294 294 296 296 296 297 298 300 300 300 301 299 296 294 294 295 295 294 293 293 292 292 294 295 293 291 291 290 289 289 289 290 289 288 288 288 288 289 289 293
292 292 292 291 292 294 294 295 293 294 295 296 298 297 298 297 296 295 295 295 293 292 292 292 292 293 295 293 292 291 291 294 293 289 289 289 289 289 288 290 291 291 289 289
290 289 289 289 289 291 292 294 295 295 295 296 295 295 295 294 294 292 293 294 293 292 293 292 292 295 294 293 291 291 290 289 292 288 288 289 292 293 290 288 290 290 289 291
292 291 291 291 291 290 291 293 294 294 294 296 295 294 293 293 292 291 292 293 292 292 292 293 294 293 292 292 291 290 289 289 289 289 293 293 291 292 291 290 291 290 289 291
290 290 290 290 291 291 292 292 294 295 294 295 293 293 293 293 292 292 292 291 291 290 291 294 296 292 291 292 291 290 290 293 293 292 292 292 291 291 291 291 290 291 291 291
291 290 290 289 291 292 292 294 294 294 294 294 293 293 292 292 292 292 292 291 292 291 292 293 291 290 290 292 293 292 293 292 291 290 290 290 290 289 290 290 289 291 291 292
290 289 287 287 289 292 293 293 293 293 293 293 293 293 292 292 292 292 289 288 290 292 292 292 290 289 290 291 294 292 291 290 289 289 289 286 287 289 289 289 288 288 290 292
289 286 286 289 290 291 291 292 292 293 293 293 292 292 291 291 291 291 291 289 290 293 291 290 289 291 291 294 292 291 291 290 290 289 289 289 289 289 289 289 287 290 291 291
288 287 289 289 289 289 290 291 292 293 292 292 291 291 290 291 290 289 287 290 291 292 290 289 292 293 294 292 291 291 291 290 290 290 289 289 289 289 289 289 289 288 291 291
285 288 289 289 289 289 287 289 290 291 291 291 291 291 290 288 288 290 291 292 292 291 290 290 291 293 294 292 291 291 290 290 290 290 289 289 289 289 289 290 289 288 290 291
286 287 288 288 287 286 287 288 288 288 288 289 289 290 290 290 288 288 289 289 291 289 289 292 292 293 292 291 291 290 290 290 290 289 288 288 288 288 289 289 290 290 291 291
287 287 287 288 288 288 288 288 287 287 287 286 287 288 288 289 290 289 288 289 288 289 289 290 291 291 291 291 291 290 290 289 289 289 289 289 288 289 289 288 290 290 290 290
288 289 288 287 289 289 289 289 287 286 287 287 286 287 287 288 289 289 289 288 289 289 289 290 290 291 291 291 290 290 290 290 290 290 289 287 287 289 290 290 288 290 291 291
Wind_Speed
21 23 20 21 21 27 26 30 23 28 26 25 19 13 13 10 10 9 11 13 15 15 14 14 13 13 12 12 12 10 9 8 8 7 7 6 6 6 7 7 7 6 7 7
25 23 25 27 29 26 27 31 31 32 33 7 12 9 8 12 13 15 15 17 17 16 14 16 16 15 14 14 12 10 9 8 7 7 7 7 6 7 6 6 6 6 7 7
12 20 18 21 18 27 25 24 22 24 35 13 20 18 19 11 12 15 14 17 18 19 18 16 16 16 15 14 11 11 10 8 7 7 7 6 6 5 4 5 5 7 7 7
9 11 15 14 16 22 24 29 27 25 26 15 19 18 11 12 11 16 17 16 17 15 13 13 11 12 12 13 12 11 8 7 7 7 6 5 3 3 4 4 6 6 7 8
7 12 17 21 13 17 13 20 27 26 20 11 13 5 13 9 10 13 12 12 14 13 12 11 13 12 13 10 10 9 8 7 7 6 5 4 4 5 5 5 6 6 6 8
11 10 5 12 12 6 13 16 20 26 24 24 16 5 21 12 9 9 10 9 13 13 11 13 10 13 14 11 10 8 8 7 6 6 6 6 5 6 5 5 6 5 6 7
14 13 8 17 15 8 4 9 18 22 28 28 21 17 16 9 7 8 10 12 12 15 14 13 12 13 12 10 9 8 7 6 6 7 6 6 5 4 5 6 6 6 7 6
5 6 10 9 7 8 5 9 15 22 27 29 26 21 9 6 13 13 15 15 14 13 13 12 13 13 11 9 7 7 7 6 7 6 4 4 6 5 5 5 5 6 5 5
8 8 17 21 23 6 4 13 18 12 19 24 21 16 13 5 7 10 12 10 12 14 13 10 10 11 10 8 8 7 7 7 5 5 5 5 5 6 4 4 4 4 3 4
4 18 14 13 19 20 6 15 15 17 16 16 17 12 7 8 5 6 9 9 8 15 13 10 8 9 9 8 7 7 7 6 4 4 5 5 4 4 4 4 4 4 4 6
9 22 14 14 11 11 11 15 17 11 13 6 12 16 7 3 2 2 6 6 9 12 11 11 9 8 8 8 8 7 6 5 4 3 4 4 4 4 4 5 5 4 5 5
13 20 12 20 21 21 18 20 20 15 13 10 10 14 12 6 7 7 7 8 9 9 11 10 9 7 7 7 7 7 5 4 4 3 3 2 3 5 8 3 7 11 15 13
21 18 14 20 18 24 23 17 17 17 16 16 14 9 10 3 5 9 9 10 12 12 10 11 9 7 7 7 7 6 6 5 3 3 2 3 3 2 3 5 9 12 16 18
15 13 17 20 17 17 21 20 20 19 17 19 13 11 11 10 4 9 12 12 11 12 11 10 9 8 7 7 6 6 5 5 3 2 2 2 3 4 3 3 3 5 9 12
14 16 19 20 20 21 18 16 16 14 14 13 8 13 12 10 8 11 10 11 12 11 10 10 9 7 6 6 6 5 4 2 1 2 2 4 3 4 4 3 4 5 4 8
14 15 12 8 7 8 9 9 8 10 10 10 9 10 13 11 8 9 11 12 14 11 11 9 7 6 6 7 6 4 3 3 4 2 2 3 4 4 4 4 3 5 5 7
4 7 5 7 8 9 12 11 11 13 13 13 11 8 10 10 9 8 9 11 11 9 9 8 7 8 7 6 5 4 4 2 4 2 3 4 4 2 2 4 4 5 6 7
5 8 8 12 15 12 13 13 13 15 15 15 9 8 10 12 13 12 13 13 9 8 7 8 9 7 6 6 6 4 3 1 1 3 3 2 3 3 4 4 4 5 5 6
8 11 13 16 16 15 13 14 13 15 15 12 11 12 12 11 13 14 13 12 11 10 4 9 13 8 7 8 6 3 2 0 1 1 2 5 4 4 4 4 4 6 6 5
13 11 14 16 17 10 11 12 16 16 15 9 9 11 12 10 13 15 12 9 7 6 9 8 8 7 6 6 5 3 3 2 1 2 3 3 3 4 4 7 6 6 6 6
16 16 16 16 11 9 13 18 16 17 9 9 14 13 12 12 12 14 12 8 4 11 9 12 6 4 3 4 3 3 3 2 2 3 3 3 4 4 5 6 4 4 5 6
17 15 15 7 10 13 15 15 10 6 7 9 13 14 15 14 13 10 8 9 4 12 7 5 4 7 4 3 4 3 2 2 3 3 3 3 4 4 4 5 4 5 4 6
15 9 7 11 11 9 5 6 5 6 11 12 15 15 12 9 7 9 8 5 6 8 4 4 8 7 3 4 3 2 2 2 3 3 2 2 3 4 4 5 4 4 5 5
7 4 6 6 6 3 5 6 8 12 13 14 14 12 10 8 7 6 9 12 13 9 4 4 6 6 8 3 2 1 1 3 2 1 2 4 3 4 4 4 5 4 5 6
5 5 4 5 5 5 6 6 10 13 14 14 13 11 9 5 5 6 7 6 12 6 3 7 7 6 4 3 1 1 2 2 3 2 2 2 3 4 4 4 4 6 5 4
6 5 4 6 5 5 5 6 7 8 8 9 9 8 7 6 6 7 6 7 4 6 4 4 2 3 3 1 3 2 3 3 3 2 3 3 4 4 4 4 5 5 5 5
4 6 5 5 6 7 7 7 7 8 8 7 8 6 5 5 5 5 7 4 3 4 3 3 3 3 1 1 2 2 3 3 3 2 3 2 3 3 4 4 5 5 5 6
Wind_Direction
318 318 320 309 235 218 215 227 230 251 243 244 237 235 231 212 194 189 187 180 187 188 189 183 178 181 175 172 171 166 166 168 183 191 202 218 232 246 257 261 267 267 274 276
287 298 317 314 303 294 229 233 239 246 257 176 230 229 229 225 212 195 197 192 194 193 187 184 183 181 176 173 174 167 165 173 180 189 202 219 236 250 262 274 282 278 283 281
266 273 281 293 297 285 292 254 240 237 247 184 235 240 244 238 207 205 197 197 193 194 190 185 182 173 175 171 161 160 161 174 182 185 200 218 237 258 267 272 267 282 281 280
264 273 244 242 241 270 276 276 272 255 255 204 226 233 229 221 192 211 208 196 194 188 182 176 163 163 154 158 159 159 164 170 173 185 199 218 222 239 261 263 273 268 270 271
258 272 279 288 256 280 4 311 324 301 267 210 221 176 254 211 192 194 192 181 182 173 160 155 154 154 149 145 148 146 157 166 176 182 197 185 210 244 259 254 267 262 267 271
263 261 281 308 265 269 7 267 7 347 338 342 321 181 251 184 197 183 167 152 148 146 142 142 145 141 138 143 141 151 159 171 183 191 180 193 223 247 246 239 251 261 269 270
249 269 277 264 300 354 11 337 342 347 332 325 329 278 280 186 152 144 144 133 132 140 144 142 138 135 137 140 154 160 159 179 187 182 186 201 232 225 243 255 263 277 282 278
282 208 260 28 330 341 12 323 318 326 317 304 308 323 298 164 139 138 132 133 132 129 135 138 137 134 143 153 161 161 173 180 185 187 201 211 228 257 259 255 267 279 288 290
183 238 261 298 286 275 229 315 301 292 291 294 299 316 332 18 99 121 121 127 136 133 132 134 136 140 145 173 158 170 170 179 182 202 222 234 233 259 270 259 253 262 276 281
315 267 272 299 286 274 260 258 283 262 257 296 294 305 338 342 29 112 114 121 138 127 133 138 139 141 157 160 163 155 168 179 193 203 237 248 256 251 241 255 233 231 262 273
263 282 303 286 290 310 287 270 297 288 256 269 320 313 273 180 87 41 115 118 138 130 142 149 144 148 157 158 149 153 164 178 198 214 238 257 256 245 250 248 193 216 246 259
259 270 265 279 287 284 290 285 284 284 266 220 239 273 291 229 176 161 160 143 133 142 145 152 144 154 156 152 152 159 171 182 203 210 241 248 254 283 302 299 271 295 303 298
253 258 261 272 281 291 284 280 279 280 275 267 226 212 279 260 205 165 160 163 154 156 158 148 148 152 159 156 150 160 174 189 206 221 225 255 274 243 268 307 301 299 297 303
265 287 276 280 281 285 287 284 278 279 278 274 238 198 206 219 207 173 178 178 154 149 151 144 141 151 160 148 147 160 168 184 164 221 249 262 228 242 245 268 290 292 287 303
264 249 254 265 273 278 282 284 285 284 290 277 224 199 192 213 185 188 168 158 152 152 139 139 144 156 148 140 142 138 131 128 195 273 266 257 252 258 263 271 261 266 290 302
294 289 292 301 312 308 315 319 307 307 298 284 250 194 183 190 176 155 152 145 147 156 148 145 143 153 129 123 124 118 92 13 75 70 319 298 275 266 281 277 283 299 291 279
306 305 312 300 298 300 299 298 291 290 284 278 235 183 151 145 141 140 140 136 127 136 141 139 135 121 120 114 115 102 105 83 355 5 301 274 263 275 286 260 257 267 271 273
279 267 260 261 273 272 281 280 281 283 278 269 225 173 151 155 159 141 133 117 112 106 112 121 121 120 110 103 108 118 115 86 325 271 277 302 290 289 285 274 277 275 281 287
292 291 298 293 286 268 274 280 274 279 277 249 177 174 160 156 149 134 127 130 130 127 132 123 135 117 112 128 124 125 135 62 303 307 284 313 305 297 298 297 292 283 282 293
296 294 297 291 294 269 284 289 286 279 272 203 161 141 133 146 143 129 132 130 149 142 130 124 111 112 120 135 128 126 106 111 341 310 296 290 288 293 300 297 286 286 299 295
313 305 299 288 283 292 290 286 277 267 218 162 144 140 141 132 122 115 113 104 118 121 124 121 122 122 119 130 101 112 119 62 318 290 278 283 302 312 291 289 283 273 292 299
313 309 302 298 298 307 300 285 268 187 139 122 120 126 124 116 110 100 113 134 136 126 123 122 125 137 140 117 125 138 142 242 274 278 284 302 298 295 303 294 300 312 311 295
311 309 319 314 305 300 339 12 0 126 115 112 107 106 109 118 124 122 123 123 109 124 119 129 138 129 132 123 126 133 224 292 273 274 299 310 316 306 293 307 322 307 315 308
312 341 351 4 345 14 41 34 70 85 93 96 101 109 122 114 79 88 112 125 132 135 135 134 120 115 123 119 133 177 265 292 277 299 34 330 298 301 308 322 316 304 302 312
345 347 337 9 21 39 48 49 75 78 83 85 81 80 82 66 92 112 107 124 135 130 130 112 113 110 110 119 143 238 236 275 285 350 330 305 284 302 306 330 306 307 307 306
9 17 27 44 50 49 51 60 66 69 78 80 70 69 75 80 99 113 123 127 124 135 120 111 96 92 94 139 207 238 257 278 319 316 305 281 282 287 296 325 311 316 313 309
36 30 39 45 51 59 60 62 70 68 70 76 92 87 87 101 110 109 118 132 135 105 110 117 94 77 82 242 174 245 274 307 316 324 290 328 304 294 320 295 301 316 307 302